{"data":{"norad_id":55928,"epoch":"2026-05-25T03:33:04.778208Z","epoch_age_seconds":62127,"freshness":"FRESH","line1":"1 55928U 23037Q   26145.14797197 -.00002335  00000+0 -18791-3 0  9990","line2":"2 55928  69.9991 111.5279 0003103 270.7123  89.3680 14.98337816174948","mean_motion":14.98337816,"eccentricity":0.0003103,"inclination_deg":69.9991,"raan_deg":111.5279,"arg_perigee_deg":270.7123,"mean_anomaly_deg":89.368,"bstar":-0.00018791,"rev_number":17494,"period_min":96.106497788614,"perigee_km":569.87508336019,"apogee_km":574.18835806827,"semimajor_km":6950.1687207142,"source":"CELESTRAK","updated_at":"2026-05-25T13:38:17.913127Z"}}